Flag for U.S.A. Weather past 2 weeks in Montpelier, Vermont, U.S.A.

Now
18 °F

Sunny.


Feels Like: 13 °F
Forecast: 3 / 26 °F
Wind: 3 mph from East

Location: Knapp State Airport

Current Time: Mar 3, 2015 at 11:50:11 AM

Latest Report: Mar 3, 2015 at 10:51 AM


Visibility: 10 mi

Pressure: 30.37 "Hg

Humidity: 37%

Dew point: -4 °F

Location of MontpelierLocation

Historic Weather in Montpelier — Graph

°F

Montpelier temperature yesterday

Maximum temperature yesterday: 24 °F (at 12:51 PM)
Minimum temperature yesterday: 13 °F (at 11:51 PM)
Average temperature yesterday: 19 °F

Past Weeks' High & Low Weather Summary

 TemperatureHumidityPressure
High27 °F (Feb 22, 2:51 PM)92% (Feb 21, 11:59 PM)30.79 "Hg (Feb 21, 11:59 PM)
Low-22 °F (Feb 24, 6:51 AM)34% (Feb 28, 2:51 PM)29.67 "Hg (Feb 18, 11:00 PM)
Average7 °F65%30.19 "Hg
* Reported Feb 16 10:51 AM — Mar 3 10:51 AM, Montpelier, Weather by CustomWeather, © 2015

Note: Actual official high and low records may vary slightly from our data, if they occured in-between our weather recording intervals... More about our weather records

Advertising

Montpelier weather history for previous 24 hours

 ConditionsComfort  
Time TempWeatherWind HumidityBarometerVisibility
10:51 AM
Tue, Mar 3
18 °FSunny.3 mph37%30.37 "Hg10 mi
9:51 AM15 °FSunny.3 mph46%30.40 "Hg10 mi
8:51 AM10 °FSunny.3 mph61%30.40 "Hg10 mi
7:51 AM7 °FSunny.No wind66%30.41 "Hg10 mi
6:51 AM0 °FSunny.No wind71%30.40 "Hg10 mi
5:51 AM4 °FClear.No wind69%30.40 "Hg10 mi
4:51 AM5 °FClear.No wind63%30.40 "Hg10 mi
3:51 AM10 °FClear.9 mph58%30.37 "Hg10 mi
2:51 AM9 °FClear.6 mph61%30.35 "Hg10 mi
1:51 AM12 °FClear.5 mph56%30.34 "Hg10 mi
12:51 AM13 °FClear.10 mph56%30.33 "Hg10 mi
11:51 PM
Mon, Mar 2
13 °FClear.10 mph59%30.32 "Hg10 mi
10:51 PM14 °FClear.8 mph58%30.32 "Hg10 mi
9:51 PM16 °FPassing clouds.10 mph59%30.29 "Hg10 mi
8:58 PM17 °FLight snow. Passing clouds.15 mph64%30.20 "Hg3 mi
7:51 PM19 °FLight snow. Mostly cloudy.17 mph62%30.25 "Hg8 mi
6:51 PM20 °FLight snow. Overcast.10 mph62%30.20 "Hg7 mi
6:02 PM20 °FLight snow. Overcast.23 mph78%30.08 "Hg2 mi
5:03 PM21 °FLight snow. Mostly cloudy.21 mph71%30.03 "Hg2 mi
3:51 PM22 °FLight snow. Partly sunny.25 mph60%30.07 "Hg1 mi
2:51 PM23 °FLight snow. Mostly cloudy.18 mph65%30.03 "Hg3 mi
1:51 PM23 °FLight snow. Mostly cloudy.13 mph74%30.01 "Hg1 mi
12:51 PM24 °FLight snow. More clouds than sun.21 mph57%30.01 "Hg6 mi
11:51 AM22 °FOvercast.15 mph66%30.02 "Hg6 mi
Weather by CustomWeather, © 2015

See weather overviewHow to use our weather pages